Location: �terpigny
(49.8910°N, 2.9249°E)
Time: 09:04:46
(UTC+00:00)

USA 229 - Pass Details

Date: 24 October 2021
Orbit: 946 x 1266 km, 63.4° (Epoch: 25 November)

Event Time Altitude Azimuth Distance (km) Brightness Sun altitude
Rises 17:25:39 0° 179° (S) 3,627 6.6 -8.1°
Reaches altitude 10° 17:28:31 10° 167° (SSE) 2,710 5.8 -8.5°
Maximum altitude 17:33:41 27° 112° (ESE) 1,827 4.5 -9.4°
Drops below altitude 10° 17:39:07 10° 58° (ENE) 2,872 5.4 -10.2°
Enters shadow 17:39:31 - 56° (ENE) 2,992 5.5 -10.3°
